Tracking 25963 objects as of 12-Aug-2022
HD Live streaming from Space Station
objects crossing your sky now

RESURS O1 DEB

Track RESURS O1 DEB now!
10-day predictions


NORAD ID: 47213
Int'l Code: 1994-074CZ
Perigee: 615.3 km
Apogee: 623.4 km
Inclination: 98.0 °
Period: 96.9 minutes
Semi major axis: 6990 km
RCS: Unknown
Launch date: November 4, 1994
Source: Commonwealth of Independent States (former USSR) (CIS)
Launch site: TYURATAM MISSILE AND SPACE COMPLEX (TTMTR)

Note: This is SATELLITE DEBRIS
aabbcc
Your satellite tracking list
Your tracking list is empty




NASA's NSSDC Master Catalog

Two Line Element Set (TLE):
1 47213U 94074CY  22223.87433522  .00006539  00000-0  76424-3 0  9995
2 47213  97.9663 276.5007 0005809 172.5102 187.6200 14.85442784 93751
Source of the keplerian elements: AFSPC